Location: Unspecified
(0.0000°N, 0.0000°E)
Time: 07:00:40
(UTC+00:00)

SR - Pass Details

Date: 22 December 2018
Orbit: 582 x 874 km, 66.7° (Epoch: 15 June)

Event Time Altitude Azimuth Distance (km) Brightness Sun altitude
Rises 23:58:04 0° 232° (SW) 3,451 - -66.6°
Reaches altitude 10° 00:01:28 10° 251° (WSW) 2,519 - -66.5°
Maximum altitude 00:05:06 17° 290° (WNW) 2,059 - -66.5°
Drops below altitude 10° 00:08:43 10° 329° (NNW) 2,487 - -66.4°
Sets 00:12:04 0° 349° (NNW) 3,388 - -66.3°
